World > North America > United States > Texas

Westlake, Texas Regional Weather

Lat: 32.98N, Lon: 97.2W
Wx Zone: TXZ118Web Search
Westlake Weather Warning NWS WEATHER ALERT FOR THE WESTLAKE, TX AREA - Issued: 347 AM CDT Fri Apr 16 2021 Westlake Weather Warning  

Our weather pages are very print friendly and they make great conversation starters.

Feedback


°F Click to change Westlake hourly weather to Imperial units.Click to change Westlake hourly weather to Metric units. °C
Westlake Weather Map
UTC Time: 4/16/2021, 10:55
Your Time:

Westlake, TX Regional Weather

Expires:202104161100;;635542
ASUS44 KFWD 161015
RWRTX 
NORTH TEXAS HOURLY WEATHER ROUNDUP
NATIONAL WEATHER SERVICE FORT WORTH TX
500 AM CDT FRI APR 16 2021

NOTE: "FAIR" INDICATES FEW OR NO CLOUDS BELOW 12,000 FEET WITH NO
SIGNIFICANT WEATHER AND/OR OBSTRUCTIONS TO VISIBILITY.


TXZ118-119-161100-
DALLAS/FORT WORTH METROPLEX
  
CITY           SKY/WX    TMP DP  RH WIND       PRES   REMARKS
DFW AIRPORT    CLOUDY    57  56  96 E10       29.82F                  
DALLAS LOVE    CLOUDY    58  55  90 E9        29.85S                  
FTW MEACHAM    CLOUDY    56  56 100 E9        29.83F FOG              
DAL-EXECUTIVE  CLOUDY    57  55  93 E7        29.84S FOG              
FTW-ALLIANCE   DRIZZLE   57  55  93 SE10      29.82F FOG              
FTW-NAS-JRB    CLOUDY    58  57  97 SE7       29.84F FOG              
FTW-SPINKS     CLOUDY    58  57  97 SE6       29.85F FOG              
ARLINGTON      CLOUDY    60  57  89 E7        29.84F FOG              
GRAND PRAIRIE  CLOUDY    57  57 100 E5        29.86F                  
ADDISON        CLOUDY    56  55  97 E8        29.86F                  
MESQUITE       CLOUDY    56  56 100 E5        29.87S                  
LANCASTER      CLOUDY    56  56  97 E7        29.87S                  
$$


SKY/WX - Weather  TMP - Temperature  DP - Dew Point  RH - Relative Humidity
WIND - Wind Direction/Speed PRES - Barometric Pressure VSB - Visibility
WCI - Wind Chill Index E13G22 Wind - East Wind 13 mph/Gusts of 22 mph